Location: Thompson
(55.7500°N, 97.8670°W)
Time: 06:04:34
(UTC-05:00)

Amateur Radio Satellites - All Passes

Search period start: 28 March 2015 05:34
Search period end: 29 March 2015 05:34
Location: Thompson, 55.7500°N, 97.8670°W

Satellite Date Start Highest point End Downlink Frequencies (MHz)
Time Altitude Azimuth
ITAMSAT 1 28 Mar 06:09:51 06:13:44 21° 309° (NW) 06:17:31 435.822/435.867
GONETS M04 28 Mar 06:11:59 06:20:13 42° 60° (ENE) 06:28:32
ISS 28 Mar 06:16:38 06:18:31 14° 212° (SSW) 06:20:21 145.825
PRISM 28 Mar 06:23:15 06:27:16 44° 66° (ENE) 06:31:20 437.425
AUBIESAT-1 28 Mar 06:23:19 06:27:00 29° 261° (W) 06:30:55 437.475
MOZHAYETS 4 28 Mar 06:27:05 06:30:52 24° 271° (W) 06:34:35
CUBESAT XI-V 28 Mar 06:31:18 06:35:57 59° 69° (ENE) 06:40:36 437.345
JAS-2 28 Mar 06:36:06 06:44:02 78° 291° (WNW) 06:51:33 435.910
AO-7 28 Mar 06:39:00 06:47:22 85° 294° (WNW) 06:55:41 29.400- 29.500
Cubesat XI-IV 28 Mar 06:39:34 06:43:03 18° 85° (E) 06:46:39 437.490
CUTE-I 28 Mar 06:39:51 06:43:18 18° 85° (E) 06:46:54 437.470
STRAND 1 28 Mar 06:41:47 06:46:45 50° 65° (ENE) 06:51:45 437.568
M-CUBED/EXP-1 PRIME 28 Mar 06:47:38 06:50:33 18° 268° (W) 06:53:29 437.505
Gurwin Techsat 1B 28 Mar 06:50:30 06:53:33 15° 315° (NW) 06:56:26 435.225
O/OREOS (USA 219) 28 Mar 06:51:20 06:55:50 50° 310° (NW) 07:00:21 437.305
AIST 1 28 Mar 06:55:45 06:59:23 24° 298° (WNW) 07:02:56
HORYU 2 28 Mar 06:58:56 07:02:28 23° 304° (WNW) 07:05:56 437.375
CUSAT 1 28 Mar 06:59:35 07:01:19 13° 59° (ENE) 07:03:23 437.405
RS-15 28 Mar 07:01:32 07:10:44 29° 255° (WSW) 07:19:54 29.354- 29.394
DANDE 28 Mar 07:39:18 07:41:49 19° 65° (ENE) 07:44:52 436.750
PRISM 28 Mar 07:59:14 08:02:57 28° 266° (W) 08:06:38 437.425
GONETS M04 28 Mar 08:08:59 08:17:44 67° 265° (W) 08:26:27
CUBESAT XI-V 28 Mar 08:09:50 08:13:46 25° 270° (W) 08:17:40 437.345
Cubesat XI-IV 28 Mar 08:18:40 08:24:03 84° 106° (ESE) 08:29:25 437.490
CUTE-I 28 Mar 08:18:55 08:24:18 84° 105° (ESE) 08:29:39 437.470
STRAND 1 28 Mar 08:21:31 08:26:11 34° 266° (W) 08:30:51 437.568
JAS-2 28 Mar 08:21:38 08:28:06 29° 313° (NW) 08:34:17 435.910
AO-7 28 Mar 08:32:14 08:39:22 33° 318° (NW) 08:46:23 29.400- 29.500
O/OREOS (USA 219) 28 Mar 08:33:18 08:36:21 17° 333° (NNW) 08:39:20 437.305
CUSAT 1 28 Mar 08:40:51 08:44:27 90° 308° (NW) 08:49:14 437.405
TIGRISAT 28 Mar 08:58:15 08:59:09 11° 46° (NE) 09:00:11 435.000
SEEDS 28 Mar 09:02:31 09:03:07 10° 81° (E) 09:03:56 437.485
DOVE 4 28 Mar 09:13:53 09:15:43 13° 84° (E) 09:17:44 437.250
GOMX 1 28 Mar 09:17:40 09:20:35 18° 88° (E) 09:23:39 467.674
DANDE 28 Mar 09:21:54 09:25:12 47° 259° (W) 09:29:28 436.750
ANTELSAT 28 Mar 09:25:37 09:28:20 17° 53° (NE) 09:31:10 437.575/2403.000
COMPASS 1 28 Mar 09:25:44 09:28:01 14° 85° (E) 09:30:26 437.405
QB50P1 28 Mar 09:41:07 09:43:12 14° 51° (NE) 09:45:24 145.935-145.965
DUCHIFAT 1 28 Mar 09:43:42 09:45:51 14° 52° (NE) 09:48:07 145.980
CANX-2 28 Mar 09:50:20 09:54:15 33° 94° (E) 09:58:11 2200.000
QB50P2 28 Mar 09:54:39 09:57:23 17° 55° (NE) 10:00:12 145.880/145.840
HO-68 28 Mar 09:56:54 10:03:41 42° 96° (E) 10:10:30 435.675
Cubesat XI-IV 28 Mar 09:59:25 10:03:40 24° 307° (NW) 10:07:49 437.490
CUTE-I 28 Mar 09:59:38 10:03:53 24° 307° (NW) 10:08:02 437.470
BRITE-PL 28 Mar 10:01:26 10:05:33 59° 101° (ESE) 10:09:45 437.365/2234.400
CUTE 1.7 + AOD 2 28 Mar 10:04:25 10:08:29 40° 97° (E) 10:12:35 437.475
GONETS M04 28 Mar 10:07:06 10:13:03 20° 289° (WNW) 10:18:42
JAS-2 28 Mar 10:07:30 10:10:47 13° 337° (NNW) 10:13:53 435.910
O/OREOS (USA 219) 28 Mar 10:16:40 10:17:43 11° 359° (N) 10:18:46 437.305
UNISAT 6 28 Mar 10:20:05 10:24:06 40° 65° (ENE) 10:28:13 437.425
POPSAT HIP 1 28 Mar 10:22:46 10:26:17 26° 61° (ENE) 10:29:51 437.405
DELFI C3 28 Mar 10:22:47 10:25:30 17° 87° (E) 10:28:19 145.870
AO-7 28 Mar 10:24:54 10:29:50 17° 344° (NNW) 10:34:39 29.400- 29.500
CUSAT 1 28 Mar 10:25:20 10:27:04 12° 269° (W) 10:28:46 437.405
BUGSAT 1 28 Mar 10:29:31 10:32:47 23° 60° (ENE) 10:36:06 437.445
DX 1 28 Mar 10:29:36 10:31:02 12° 83° (E) 10:32:39 434.975-435.025
TIGRISAT 28 Mar 10:30:52 10:34:59 48° 67° (ENE) 10:39:11 435.000
NANOSAT C BR1 28 Mar 10:33:41 10:37:24 32° 63° (ENE) 10:41:11 145.865
AAUSAT CUBESAT 2 28 Mar 10:34:07 10:38:14 47° 99° (E) 10:42:21 437.432
SEEDS 28 Mar 10:35:37 10:39:54 64° 102° (ESE) 10:44:10 437.485
POLYITAN 1 28 Mar 10:36:36 10:40:24 34° 63° (ENE) 10:44:14 437.675
CINEMA 3 28 Mar 10:39:20 10:43:24 39° 97° (E) 10:47:37 145.822/145.860
Oscar 11 28 Mar 10:49:28 10:53:31 36° 96° (E) 10:57:34 145.826/435.025
DOVE 4 28 Mar 10:50:02 10:54:16 81° 104° (ESE) 10:58:41 437.250
GOMX 1 28 Mar 10:55:04 10:59:14 68° 289° (WNW) 11:03:32 467.674
FUNcube-1 28 Mar 10:57:27 11:01:04 26° 92° (E) 11:04:47 145.935
UWE-3 28 Mar 10:58:04 11:01:55 31° 94° (E) 11:05:54 435.000/436.395/437.385
COMPASS 1 28 Mar 11:00:08 11:04:25 89° 102° (ESE) 11:08:42 437.405
CUBEBUG 2 28 Mar 11:00:12 11:04:14 37° 96° (E) 11:08:25 437.445
ANTELSAT 28 Mar 11:00:15 11:04:33 86° 74° (ENE) 11:08:57 437.575/2403.000
VELOX 1 28 Mar 11:04:00 11:05:40 12° 83° (E) 11:07:31 145.980
AISAT 28 Mar 11:07:45 11:09:51 13° 84° (E) 11:12:08 437.250
ZACube-1 28 Mar 11:09:40 11:13:34 32° 95° (E) 11:17:34 437.345
QB50P1 28 Mar 11:14:12 11:18:25 69° 71° (ENE) 11:22:38 145.935-145.965
DUCHIFAT 1 28 Mar 11:16:51 11:21:02 71° 72° (ENE) 11:25:15 145.980
BEESAT 2 28 Mar 11:20:16 11:22:55 17° 116° (ESE) 11:25:41 435.950
CANX-2 28 Mar 11:26:14 11:30:17 40° 294° (WNW) 11:34:19 2200.000
QB50P2 28 Mar 11:28:32 11:32:47 88° 262° (W) 11:37:03 145.880/145.840
ESTCUBE 1 28 Mar 11:32:48 11:34:55 13° 83° (E) 11:37:14 437.505/2401.250
50 SAT 28 Mar 11:37:06 11:40:18 22° 91° (E) 11:43:33 437.505
Oscar 19 28 Mar 11:37:31 11:39:50 13° 44° (NE) 11:42:18 437.125/150
CUTE 1.7 + AOD 2 28 Mar 11:40:29 11:44:23 33° 296° (WNW) 11:48:15 437.475
BRITE-PL 28 Mar 11:40:35 11:43:52 22° 301° (WNW) 11:47:06 437.365/2234.400
HO-68 28 Mar 11:44:41 11:51:46 59° 299° (WNW) 11:58:47 435.675
UKube-1 28 Mar 11:55:21 11:59:39 57° 102° (ESE) 12:03:56 .
O/OREOS (USA 219) 28 Mar 11:56:21 11:59:07 16° 24° (NNE) 12:01:56 437.305
DELFI C3 28 Mar 11:57:04 12:01:12 72° 289° (WNW) 12:05:17 145.870
UNISAT 6 28 Mar 11:57:09 12:01:01 32° 266° (W) 12:04:57 437.425
BEESAT 3 28 Mar 11:57:29 12:01:15 35° 125° (SE) 12:05:05 437.485
POPSAT HIP 1 28 Mar 11:57:52 12:01:59 50° 260° (W) 12:06:08 437.405
DX 1 28 Mar 12:03:50 12:08:12 71° 104° (ESE) 12:12:32 434.975-435.025
BUGSAT 1 28 Mar 12:03:56 12:08:02 57° 259° (WSW) 12:12:05 437.445
TIGRISAT 28 Mar 12:08:20 12:12:00 27° 268° (W) 12:15:41 435.000
NANOSAT C BR1 28 Mar 12:09:13 12:13:13 40° 262° (W) 12:17:13 145.865
AAUSAT CUBESAT 2 28 Mar 12:10:04 12:13:43 28° 298° (WNW) 12:17:20 437.432
HUMSAT D 28 Mar 12:10:50 12:15:03 63° 102° (ESE) 12:19:17 437.325/437.525
SEEDS 28 Mar 12:12:01 12:15:23 22° 301° (WNW) 12:18:42 437.485
POLYITAN 1 28 Mar 12:12:22 12:16:20 37° 264° (W) 12:20:16 437.675
AO-7 28 Mar 12:14:53 12:19:33 17° 13° (NNE) 12:24:16 29.400- 29.500
CINEMA 3 28 Mar 12:16:43 12:20:36 34° 296° (WNW) 12:24:35 145.822/145.860
AIST 2 28 Mar 12:23:52 12:27:20 25° 120° (ESE) 12:30:53 435.215
Oscar 11 28 Mar 12:25:41 12:29:44 37° 296° (WNW) 12:33:45 145.826/435.025
DOVE 4 28 Mar 12:28:43 12:31:40 18° 303° (WNW) 12:34:35 437.250
FUNcube-1 28 Mar 12:33:29 12:37:40 51° 292° (WNW) 12:41:58 145.935
UWE-3 28 Mar 12:34:30 12:38:37 43° 294° (WNW) 12:42:49 435.000/436.395/437.385
GOMX 1 28 Mar 12:34:44 12:36:46 13° 308° (NW) 12:38:41 467.674
COMPASS 1 28 Mar 12:36:46 12:39:36 17° 305° (NW) 12:42:21 437.405
CUBEBUG 2 28 Mar 12:37:00 12:40:58 36° 296° (WNW) 12:45:02 437.445
VELOX 1 28 Mar 12:38:43 12:43:09 73° 104° (ESE) 12:47:33 145.980
ITAMSAT 1 28 Mar 12:39:25 12:42:24 16° 46° (NE) 12:45:32 435.822/435.867
ANTELSAT 28 Mar 12:39:27 12:42:04 15° 275° (W) 12:44:36 437.575/2403.000
CUBEBUG 1 28 Mar 12:42:33 12:46:43 43° 98° (E) 12:50:52 437.445
AISAT 28 Mar 12:42:50 12:47:17 81° 104° (ESE) 12:51:42 437.250
ZACube-1 28 Mar 12:45:59 12:50:03 40° 294° (WNW) 12:54:10 437.345
TISAT 1 28 Mar 12:51:35 12:54:08 16° 87° (E) 12:56:48 437.305
QB50P1 28 Mar 12:51:45 12:54:48 19° 272° (W) 12:57:45 145.935-145.965
DUCHIFAT 1 28 Mar 12:54:26 12:57:24 18° 272° (W) 13:00:16 145.980
BEESAT 2 28 Mar 12:56:21 13:00:31 83° 136° (SE) 13:04:44 435.950
SPROUT 28 Mar 12:56:56 13:00:10 21° 89° (E) 13:03:27 437.525
QB50P2 28 Mar 13:07:05 13:09:24 14° 275° (W) 13:11:36 145.880/145.840
ESTCUBE 1 28 Mar 13:08:06 13:12:41 77° 103° (ESE) 13:17:12 437.505/2401.250
50 SAT 28 Mar 13:11:35 13:15:31 52° 291° (WNW) 13:19:27 437.505
YUBILEINY 28 Mar 13:11:40 13:18:05 24° 75° (ENE) 13:24:47 435.215
Oscar 19 28 Mar 13:13:15 13:18:10 49° 65° (ENE) 13:23:08 437.125/150
Gurwin Techsat 1B 28 Mar 13:19:54 13:23:59 23° 53° (NE) 13:28:10 435.225
JAS-2 28 Mar 13:30:30 13:34:26 15° 29° (NNE) 13:38:38 435.910
UKube-1 28 Mar 13:31:58 13:35:33 25° 302° (WNW) 13:39:04 .
HO-68 28 Mar 13:33:04 13:38:17 22° 322° (NW) 13:43:22 435.675
DELFI C3 28 Mar 13:33:34 13:35:44 14° 308° (NW) 13:37:46 145.870
BEESAT 3 28 Mar 13:35:09 13:39:13 53° 326° (NW) 13:43:19 437.485
O/OREOS (USA 219) 28 Mar 13:35:20 13:39:45 44° 48° (NE) 13:44:07 437.305
DX 1 28 Mar 13:40:44 13:44:04 21° 304° (NW) 13:47:20 434.975-435.025
HUMSAT D 28 Mar 13:47:11 13:50:31 23° 301° (WNW) 13:53:48 437.325/437.525
ITUPSAT 1 28 Mar 13:52:41 13:54:59 14° 83° (E) 13:57:28 437.325
AIST 2 28 Mar 14:01:18 14:05:36 74° 321° (NW) 14:09:56 435.215
AO-7 28 Mar 14:03:04 14:09:53 30° 40° (NE) 14:16:47 29.400- 29.500
FUNcube-1 28 Mar 14:11:51 14:13:12 11° 311° (NW) 14:14:26 145.935
ITAMSAT 1 28 Mar 14:15:55 14:21:02 60° 67° (ENE) 14:26:12 435.822/435.867
VELOX 1 28 Mar 14:15:57 14:19:20 21° 304° (NW) 14:22:38 145.980
CUBEBUG 1 28 Mar 14:19:08 14:23:01 31° 298° (WNW) 14:26:50 437.445
AISAT 28 Mar 14:20:12 14:23:26 20° 305° (NW) 14:26:35 437.250
TISAT 1 28 Mar 14:26:19 14:30:33 81° 288° (WNW) 14:34:45 437.305
SPROUT 28 Mar 14:32:25 14:36:41 63° 290° (WNW) 14:40:54 437.525
BEESAT 2 28 Mar 14:35:17 14:39:05 32° 338° (NNW) 14:42:54 435.950
SWISSCUBE 28 Mar 14:39:50 14:44:11 33° 95° (E) 14:48:32 437.505
BEESAT 28 Mar 14:43:01 14:47:21 33° 95° (E) 14:51:42 436.000
ESTCUBE 1 28 Mar 14:45:41 14:49:07 21° 304° (NW) 14:52:28 437.505/2401.250
50 SAT 28 Mar 14:48:52 14:49:38 10° 311° (NW) 14:50:17 437.505
HORYU 2 28 Mar 14:51:36 14:55:24 29° 60° (ENE) 14:59:16 437.375
Oscar 19 28 Mar 14:53:05 14:57:45 34° 266° (W) 15:02:25 437.125/150
Gurwin Techsat 1B 28 Mar 14:58:06 15:03:27 87° 253° (WSW) 15:08:50 435.225
YUBILEINY 28 Mar 15:04:53 15:13:41 79° 98° (E) 15:22:35 435.215
KKS-1 28 Mar 15:10:18 15:12:46 15° 85° (E) 15:15:23 437.445
JAS-2 28 Mar 15:10:59 15:17:26 36° 53° (NE) 15:24:24 435.910
BEESAT 3 28 Mar 15:14:32 15:18:03 25° 349° (N) 15:21:33 437.485
O/OREOS (USA 219) 28 Mar 15:14:55 15:19:08 37° 249° (WSW) 15:23:17 437.305
AIST 1 28 Mar 15:16:30 15:20:30 34° 67° (ENE) 15:24:27
HO-68 28 Mar 15:21:36 15:23:29 11° 348° (NNW) 15:25:16 435.675
ITUPSAT 1 28 Mar 15:29:00 15:33:50 73° 104° (ESE) 15:38:39 437.325
AIST 2 28 Mar 15:40:59 15:44:48 29° 343° (NNW) 15:48:36 435.215
STARS 28 Mar 15:44:27 15:47:38 20° 89° (E) 15:50:55 437.465
AO-7 28 Mar 15:53:25 16:01:42 76° 63° (ENE) 16:10:01 29.400- 29.500
ITAMSAT 1 28 Mar 15:56:23 16:00:55 29° 268° (W) 16:05:25 435.822/435.867
TISAT 1 28 Mar 16:03:14 16:05:46 15° 307° (NW) 16:08:12 437.305
SPROUT 28 Mar 16:10:00 16:12:02 13° 310° (NW) 16:13:57 437.525
PCSat 28 Mar 16:13:13 16:18:18 43° 120° (ESE) 16:23:26 145.827
BEESAT 2 28 Mar 16:14:51 16:18:15 23° 2° (N) 16:21:39 435.950
SWISSCUBE 28 Mar 16:17:37 16:22:14 46° 295° (WNW) 16:26:47 437.505
BEESAT 28 Mar 16:20:46 16:25:24 46° 295° (WNW) 16:29:57 436.000
HORYU 2 28 Mar 16:27:33 16:31:53 51° 260° (W) 16:36:16 437.375
Cubesat XI-IV 28 Mar 16:31:39 16:34:41 16° 45° (NE) 16:37:52 437.490
CUTE-I 28 Mar 16:31:49 16:34:49 16° 45° (NE) 16:37:58 437.470
Gurwin Techsat 1B 28 Mar 16:40:36 16:44:18 18° 275° (W) 16:47:51 435.225
KKS-1 28 Mar 16:45:41 16:50:10 87° 106° (ESE) 16:54:38 437.445
BEESAT 3 28 Mar 16:53:39 16:57:10 26° 12° (NNE) 17:00:42 437.485
AIST 1 28 Mar 16:54:12 16:58:13 36° 268° (W) 17:02:08
JAS-2 28 Mar 16:54:47 17:01:56 78° 256° (WSW) 17:09:47 435.910
YUBILEINY 28 Mar 17:03:31 17:11:33 36° 304° (NW) 17:19:32 435.215
HO-68 28 Mar 17:05:56 17:08:07 12° 15° (NNE) 17:10:26 435.675
ITUPSAT 1 28 Mar 17:07:29 17:11:21 24° 305° (NW) 17:15:07 437.325
STARS 28 Mar 17:20:12 17:24:36 69° 289° (WNW) 17:29:00 437.465
AIST 2 28 Mar 17:20:52 17:24:29 25° 7° (N) 17:28:05 435.215
AO-7 28 Mar 17:47:47 17:55:19 36° 267° (W) 18:02:45 29.400- 29.500
BEESAT 2 28 Mar 17:53:29 17:57:22 36° 25° (NNE) 18:01:15 435.950
PCSat 28 Mar 17:56:19 18:01:40 56° 322° (NW) 18:07:04 145.827
SWISSCUBE 28 Mar 17:57:17 17:59:05 12° 316° (NW) 18:00:44 437.505
AUBIESAT-1 28 Mar 17:57:34 18:00:11 15° 90° (E) 18:02:58 437.475
BEESAT 28 Mar 18:00:24 18:02:14 12° 316° (NW) 18:03:54 436.000
Cubesat XI-IV 28 Mar 18:08:36 18:13:51 57° 66° (ENE) 18:19:08 437.490
CUTE-I 28 Mar 18:08:44 18:13:58 56° 66° (ENE) 18:19:14 437.470
MOZHAYETS 4 28 Mar 18:13:19 18:17:54 53° 99° (E) 18:22:28
M-CUBED/EXP-1 PRIME 28 Mar 18:20:21 18:24:15 24° 96° (E) 18:28:12 437.505
KKS-1 28 Mar 18:23:11 18:26:18 19° 306° (NW) 18:29:22 437.445
BEESAT 3 28 Mar 18:31:50 18:35:57 57° 35° (NE) 18:40:02 437.485
JAS-2 28 Mar 18:42:50 18:48:25 23° 281° (W) 18:54:06 435.910
HO-68 28 Mar 18:48:05 18:53:27 24° 41° (NE) 18:58:58 435.675
STARS 28 Mar 18:57:55 19:00:23 15° 309° (NW) 19:02:45 437.465
AIST 2 28 Mar 18:59:48 19:03:58 45° 30° (NNE) 19:08:05 435.215
YUBILEINY 28 Mar 19:07:17 19:11:55 15° 335° (NNW) 19:16:21 435.215
CANX-2 28 Mar 19:17:43 19:19:27 13° 50° (NE) 19:21:20 2200.000
RS-15 28 Mar 19:23:00 19:31:46 31° 107° (ESE) 19:40:59 29.354- 29.394
GONETS M04 28 Mar 19:23:54 19:31:16 33° 81° (E) 19:38:51
AUBIESAT-1 28 Mar 19:31:01 19:35:51 74° 110° (ESE) 19:40:41 437.475
CUTE 1.7 + AOD 2 28 Mar 19:31:09 19:33:26 15° 52° (NE) 19:35:50 437.475
BEESAT 2 28 Mar 19:31:39 19:35:49 68° 227° (SW) 19:39:55 435.950
PRISM 28 Mar 19:34:00 19:37:30 25° 93° (E) 19:41:02 437.425
SO-50 28 Mar 19:34:14 19:37:06 16° 114° (ESE) 19:40:09 436.795
PCSat 28 Mar 19:41:31 19:46:10 28° 346° (NNW) 19:50:49 145.827
BRITE-PL 28 Mar 19:42:22 19:46:07 27° 61° (ENE) 19:49:44 437.365/2234.400
Cubesat XI-IV 28 Mar 19:49:31 19:54:18 31° 267° (W) 19:59:04 437.490
CUTE-I 28 Mar 19:49:35 19:54:23 32° 267° (W) 19:59:08 437.470
MOZHAYETS 4 28 Mar 19:50:54 19:54:57 29° 300° (WNW) 19:58:56
M-CUBED/EXP-1 PRIME 28 Mar 19:54:43 19:59:34 71° 295° (WNW) 20:04:24 437.505
CUBESAT XI-V 28 Mar 19:57:48 20:02:23 52° 99° (E) 20:06:55 437.345
AAUSAT CUBESAT 2 28 Mar 19:58:47 20:01:19 16° 54° (NE) 20:03:57 437.432
SEEDS 28 Mar 20:00:41 20:03:48 21° 57° (ENE) 20:07:01 437.485
BEESAT 3 28 Mar 20:10:08 20:13:52 32° 236° (SW) 20:17:30 437.485
CINEMA 3 28 Mar 20:13:46 20:16:14 16° 54° (NE) 20:18:48 145.822/145.860
Oscar 11 28 Mar 20:17:52 20:20:09 14° 52° (NE) 20:22:34 145.826/435.025
STRAND 1 28 Mar 20:23:35 20:28:34 49° 99° (E) 20:33:31 437.568
COMPASS 1 28 Mar 20:23:59 20:27:28 26° 61° (ENE) 20:31:03 437.405
DOVE 4 28 Mar 20:26:25 20:30:07 30° 63° (ENE) 20:33:47 437.250
FUNcube-1 28 Mar 20:28:41 20:29:08 10° 48° (NE) 20:29:44 145.935
UWE-3 28 Mar 20:29:22 20:30:58 12° 50° (NE) 20:32:41 435.000/436.395/437.385
CUBEBUG 2 28 Mar 20:31:52 20:34:03 14° 52° (NE) 20:36:21 437.445
GOMX 1 28 Mar 20:33:02 20:37:13 46° 68° (ENE) 20:41:16 467.674
HO-68 28 Mar 20:33:03 20:40:09 67° 64° (ENE) 20:47:18 435.675
AIST 2 28 Mar 20:38:30 20:42:39 47° 231° (SW) 20:46:42 435.215
ZACube-1 28 Mar 20:39:46 20:41:30 13° 51° (NE) 20:43:22 437.345
CANX-2 28 Mar 20:50:26 20:54:37 60° 70° (ENE) 20:58:52 2200.000
CUTE 1.7 + AOD 2 28 Mar 21:04:27 21:08:42 73° 72° (ENE) 21:12:59 437.475
AUBIESAT-1 28 Mar 21:06:16 21:10:17 27° 310° (NW) 21:14:17 437.475
PRISM 28 Mar 21:09:09 21:13:15 49° 293° (WNW) 21:17:17 437.425
BEESAT 2 28 Mar 21:11:11 21:13:17 13° 246° (WSW) 21:15:14 435.950
YUBILEINY 28 Mar 21:11:39 21:13:57 11° 9° (N) 21:16:21 435.215
SO-50 28 Mar 21:12:13 21:16:55 72° 134° (SE) 21:21:48 436.795
DELFI C3 28 Mar 21:17:33 21:21:06 30° 63° (ENE) 21:24:43 145.870
GONETS M04 28 Mar 21:18:43 21:27:27 78° 285° (WNW) 21:36:18
BRITE-PL 28 Mar 21:20:01 21:24:31 52° 260° (W) 21:28:46 437.365/2234.400
UKube-1 28 Mar 21:22:38 21:26:02 23° 57° (ENE) 21:29:31 .
PCSat 28 Mar 21:26:31 21:31:07 27° 12° (NNE) 21:35:45 145.827
M-CUBED/EXP-1 PRIME 28 Mar 21:30:24 21:33:47 19° 315° (NW) 21:37:06 437.505
DX 1 28 Mar 21:31:23 21:35:05 28° 59° (ENE) 21:38:49 434.975-435.025
RS-15 28 Mar 21:31:47 21:42:41 81° 132° (SE) 21:53:58 29.354- 29.394
AAUSAT CUBESAT 2 28 Mar 21:32:11 21:36:23 85° 71° (ENE) 21:40:38 437.432
SEEDS 28 Mar 21:35:00 21:39:14 71° 257° (WSW) 21:43:30 437.485
CUBESAT XI-V 28 Mar 21:35:35 21:39:39 30° 300° (WNW) 21:43:38 437.345
HUMSAT D 28 Mar 21:35:53 21:38:50 20° 57° (ENE) 21:41:53 437.325/437.525
CINEMA 3 28 Mar 21:48:44 21:52:55 86° 72° (ENE) 21:57:07 145.822/145.860
Oscar 11 28 Mar 21:51:21 21:55:39 71° 71° (ENE) 22:00:00 145.826/435.025
COMPASS 1 28 Mar 21:58:53 22:02:59 51° 261° (W) 22:07:08 437.405
CUSAT 1 28 Mar 21:59:42 22:02:14 39° 99° (E) 22:04:44 437.405
FUNcube-1 28 Mar 22:00:36 22:04:35 48° 68° (ENE) 22:08:40 145.935
UWE-3 28 Mar 22:02:40 22:06:45 60° 70° (ENE) 22:10:54 435.000/436.395/437.385
STRAND 1 28 Mar 22:03:01 22:07:42 36° 300° (WNW) 22:12:19 437.568
DOVE 4 28 Mar 22:03:47 22:07:52 41° 262° (W) 22:11:50 437.250
CUBEBUG 2 28 Mar 22:05:59 22:10:08 76° 72° (ENE) 22:14:20 437.445
VELOX 1 28 Mar 22:08:02 22:11:50 29° 60° (ENE) 22:15:40 145.980
CUBEBUG 1 28 Mar 22:11:30 22:14:26 18° 54° (NE) 22:17:27 437.445
GOMX 1 28 Mar 22:11:49 22:15:36 27° 267° (W) 22:19:13 467.674
AISAT 28 Mar 22:12:14 22:16:08 31° 61° (ENE) 22:20:04 437.250
ZACube-1 28 Mar 22:13:02 22:17:08 63° 71° (ENE) 22:21:19 437.345
HO-68 28 Mar 22:21:51 22:28:25 36° 266° (W) 22:34:57 435.675
CANX-2 28 Mar 22:27:38 22:30:58 21° 271° (W) 22:34:15 2200.000
50 SAT 28 Mar 22:30:19 22:33:56 37° 65° (ENE) 22:37:38 437.505
ESTCUBE 1 28 Mar 22:39:02 22:43:00 31° 61° (ENE) 22:47:02 437.505/2401.250
CUTE 1.7 + AOD 2 28 Mar 22:42:12 22:45:11 18° 273° (W) 22:48:04 437.475
DANDE 28 Mar 22:44:14 22:47:02 69° 286° (WNW) 22:49:39 436.750
ANTELSAT 28 Mar 22:46:20 22:47:59 12° 82° (E) 22:49:50 437.575/2403.000
PRISM 28 Mar 22:46:49 22:47:52 11° 313° (NW) 22:48:47 437.425
DELFI C3 28 Mar 22:52:17 22:56:11 41° 262° (W) 23:00:07 145.870
SO-50 28 Mar 22:53:16 22:57:49 41° 337° (NNW) 23:02:29 436.795
UKube-1 28 Mar 22:57:33 23:01:52 64° 257° (WSW) 23:06:13 .
DX 1 28 Mar 23:06:52 23:11:08 51° 259° (W) 23:15:26 434.975-435.025
YUBILEINY 28 Mar 23:08:53 23:15:22 22° 41° (NE) 23:22:01 435.215
HUMSAT D 28 Mar 23:10:07 23:14:13 71° 257° (WSW) 23:18:23 437.325/437.525
AAUSAT CUBESAT 2 28 Mar 23:10:08 23:12:41 15° 275° (W) 23:15:07 437.432
PCSat 28 Mar 23:10:20 23:15:39 52° 36° (NE) 23:20:59 145.827
SEEDS 28 Mar 23:14:33 23:15:57 11° 278° (W) 23:17:10 437.485
GONETS M04 28 Mar 23:18:45 23:26:01 27° 312° (NW) 23:33:10
CINEMA 3 28 Mar 23:28:30 23:30:51 14° 275° (W) 23:33:03 145.822/145.860
Oscar 11 28 Mar 23:29:13 23:32:22 19° 272° (W) 23:35:26 145.826/435.025
POPSAT HIP 1 28 Mar 23:36:21 23:39:04 17° 87° (E) 23:41:53 437.405
FUNcube-1 28 Mar 23:37:44 23:41:12 25° 268° (W) 23:44:40 145.935
BUGSAT 1 28 Mar 23:40:10 23:42:00 13° 85° (E) 23:43:59 437.445
UWE-3 28 Mar 23:40:35 23:43:45 20° 271° (W) 23:46:51 435.000/436.395/437.385
UNISAT 6 28 Mar 23:40:49 23:44:54 32° 95° (E) 23:49:04 437.425
VELOX 1 28 Mar 23:43:54 23:48:14 51° 260° (W) 23:52:36 145.980
CUSAT 1 28 Mar 23:44:29 23:45:21 11° 302° (WNW) 23:46:08 437.405
CUBEBUG 2 28 Mar 23:44:43 23:47:27 16° 274° (W) 23:50:04 437.445
STRAND 1 28 Mar 23:44:54 23:45:38 10° 321° (NW) 23:46:12 437.568
RS-15 28 Mar 23:45:03 23:55:56 59° 343° (NNW) 00:07:14 29.354- 29.394
CUBEBUG 1 28 Mar 23:45:52 23:50:17 90° 253° (WSW) 23:54:43 437.445
NANOSAT C BR1 28 Mar 23:47:00 23:50:09 20° 90° (E) 23:53:23 145.865
AISAT 28 Mar 23:48:21 23:52:38 45° 261° (W) 23:56:56 437.250
POLYITAN 1 28 Mar 23:50:27 23:53:47 22° 91° (E) 23:57:10 437.675
TISAT 1 28 Mar 23:50:41 23:54:25 32° 63° (ENE) 23:58:12 437.305
ZACube-1 28 Mar 23:50:54 23:53:59 19° 271° (W) 23:57:01 437.345
TIGRISAT 28 Mar 23:51:21 23:55:34 38° 97° (E) 23:59:53 435.000
SPROUT 28 Mar 23:58:06 00:02:07 41° 66° (ENE) 00:06:11 437.525
50 SAT 29 Mar 00:05:27 00:08:57 30° 265° (W) 00:12:28 437.505
ESTCUBE 1 29 Mar 00:15:19 00:19:45 48° 261° (W) 00:24:12 437.505/2401.250
SWISSCUBE 29 Mar 00:17:54 00:21:13 19° 52° (NE) 00:24:38 437.505
BEESAT 29 Mar 00:21:01 00:24:19 19° 52° (NE) 00:27:43 436.000
ANTELSAT 29 Mar 00:21:10 00:25:42 68° 103° (ESE) 00:30:20 437.575/2403.000
QB50P1 29 Mar 00:27:46 00:31:51 45° 99° (E) 00:35:56 145.935-145.965
DUCHIFAT 1 29 Mar 00:30:02 00:34:07 46° 99° (E) 00:38:12 145.980
SO-50 29 Mar 00:35:09 00:39:25 29° 1° (N) 00:43:46 436.795
ISS 29 Mar 00:35:52 00:37:40 14° 148° (SSE) 00:39:31 145.825
UKube-1 29 Mar 00:38:01 00:39:00 10° 278° (W) 00:39:46 .
QB50P2 29 Mar 00:42:18 00:46:31 61° 102° (ESE) 00:50:44 145.880/145.840
HUMSAT D 29 Mar 00:49:51 00:50:54 11° 278° (W) 00:51:46 437.325/437.525
PCSat 29 Mar 00:53:55 00:59:07 46° 239° (WSW) 01:04:16 145.827
YUBILEINY 29 Mar 01:05:42 01:14:29 62° 69° (ENE) 01:23:12 435.215
ITUPSAT 1 29 Mar 01:06:03 01:10:26 36° 61° (ENE) 01:14:52 437.325
POPSAT HIP 1 29 Mar 01:11:17 01:15:32 77° 288° (WNW) 01:19:45 437.405
BUGSAT 1 29 Mar 01:14:07 01:18:13 88° 105° (ESE) 01:22:15 437.445
STARS 29 Mar 01:16:53 01:17:01 10° 45° (NE) 01:17:16 437.465
UNISAT 6 29 Mar 01:17:31 01:21:50 44° 294° (WNW) 01:26:12 437.425
NANOSAT C BR1 29 Mar 01:22:14 01:26:26 62° 290° (WNW) 01:30:37 145.865
GONETS M04 29 Mar 01:23:45 01:27:00 12° 344° (NNW) 01:30:06
CUBEBUG 1 29 Mar 01:24:43 01:27:22 15° 275° (W) 01:29:53 437.445
POLYITAN 1 29 Mar 01:25:53 01:30:04 57° 291° (WNW) 01:34:14 437.675
TISAT 1 29 Mar 01:26:10 01:30:10 40° 262° (W) 01:34:10 437.305
TIGRISAT 29 Mar 01:28:11 01:32:21 37° 296° (WNW) 01:36:35 435.000
SPROUT 29 Mar 01:34:28 01:38:20 31° 266° (W) 01:42:12 437.525
SWISSCUBE 29 Mar 01:53:40 01:58:30 85° 71° (ENE) 02:03:21 437.505
BEESAT 29 Mar 01:56:45 02:01:35 84° 71° (ENE) 02:06:25 436.000
ANTELSAT 29 Mar 01:58:33 02:02:10 23° 302° (WNW) 02:05:45 437.575/2403.000
RS-15 29 Mar 01:59:22 02:10:22 58° 15° (NNE) 02:21:53 29.354- 29.394
QB50P1 29 Mar 02:03:55 02:07:36 29° 299° (WNW) 02:11:15 145.935-145.965
DUCHIFAT 1 29 Mar 02:06:10 02:09:49 28° 299° (WNW) 02:13:25 145.980
ISS 29 Mar 02:10:29 02:13:26 33° 167° (SSE) 02:16:25 145.825
KKS-1 29 Mar 02:15:13 02:19:11 34° 62° (ENE) 02:23:13 437.445
SO-50 29 Mar 02:16:19 02:21:00 42° 24° (NNE) 02:25:44 436.795
QB50P2 29 Mar 02:18:45 02:22:08 23° 302° (WNW) 02:25:26 145.880/145.840
ITAMSAT 1 29 Mar 02:23:04 02:24:47 12° 80° (E) 02:26:46 435.822/435.867
ITUPSAT 1 29 Mar 02:43:40 02:48:17 44° 262° (W) 02:52:56 437.325
POPSAT HIP 1 29 Mar 02:48:21 02:50:49 15° 307° (NW) 02:53:11 437.405
STARS 29 Mar 02:48:22 02:52:30 43° 65° (ENE) 02:56:41 437.465
BUGSAT 1 29 Mar 02:50:36 02:53:12 16° 305° (NW) 02:55:42 437.445
Oscar 19 29 Mar 02:56:05 03:01:07 50° 99° (E) 03:06:10 437.125/150
UNISAT 6 29 Mar 02:56:44 02:57:40 10° 314° (NW) 02:58:28 437.425
NANOSAT C BR1 29 Mar 02:59:38 03:01:34 13° 310° (NW) 03:03:22 145.865
YUBILEINY 29 Mar 03:02:55 03:11:08 44° 274° (W) 03:19:13 435.215
POLYITAN 1 29 Mar 03:03:31 03:05:13 12° 311° (NW) 03:06:46 437.675
Gurwin Techsat 1B 29 Mar 03:07:07 03:11:12 22° 88° (E) 03:15:23 435.225
AUBIESAT-1 29 Mar 03:19:48 03:22:01 14° 39° (NE) 03:24:23 437.475
GONETS M04 29 Mar 03:25:45 03:29:06 12° 18° (NNE) 03:32:40
SWISSCUBE 29 Mar 03:33:41 03:37:04 18° 273° (W) 03:40:19 437.505
BEESAT 29 Mar 03:36:44 03:40:07 18° 273° (W) 03:43:23 436.000
M-CUBED/EXP-1 PRIME 29 Mar 03:42:35 03:45:40 20° 45° (NE) 03:48:59 437.505
ISS 29 Mar 03:46:25 03:49:28 38° 187° (S) 03:52:31 145.825
MOZHAYETS 4 29 Mar 03:46:49 03:50:24 23° 57° (ENE) 03:54:03
AO-7 29 Mar 03:48:01 03:52:07 15° 77° (ENE) 03:56:40 29.400- 29.500
KKS-1 29 Mar 03:51:35 03:55:48 41° 262° (W) 04:00:02 437.445
AIST 1 29 Mar 03:55:57 03:58:09 14° 82° (E) 04:00:31
SO-50 29 Mar 03:56:56 04:01:52 69° 227° (SW) 04:06:48 436.795
JAS-2 29 Mar 03:57:24 04:02:04 17° 74° (ENE) 04:06:54 435.910
O/OREOS (USA 219) 29 Mar 03:59:24 03:59:53 10° 97° (E) 04:00:37 437.305
ITAMSAT 1 29 Mar 04:00:23 04:05:32 60° 101° (ESE) 04:10:40 435.822/435.867
HORYU 2 29 Mar 04:11:47 04:15:01 19° 88° (E) 04:18:21 437.375
RS-15 29 Mar 04:12:30 04:23:51 86° 223° (SW) 04:35:44 29.354- 29.394
STARS 29 Mar 04:25:12 04:29:07 31° 265° (W) 04:33:02 437.465
Oscar 19 29 Mar 04:35:42 04:40:23 35° 300° (WNW) 04:45:03 437.125/150
Gurwin Techsat 1B 29 Mar 04:46:29 04:51:51 78° 290° (WNW) 04:57:10 435.225
AUBIESAT-1 29 Mar 04:51:48 04:55:54 51° 60° (ENE) 05:00:22 437.475
PRISM 29 Mar 04:59:25 05:00:38 11° 48° (NE) 05:02:00 437.425
YUBILEINY 29 Mar 05:02:40 05:05:39 12° 298° (WNW) 05:08:09 435.215
M-CUBED/EXP-1 PRIME 29 Mar 05:15:45 05:19:57 84° 66° (ENE) 05:24:32 437.505
MOZHAYETS 4 29 Mar 05:22:35 05:27:13 73° 256° (WSW) 05:31:54
ISS 29 Mar 05:22:55 05:25:22 20° 206° (SSW) 05:27:48 145.825
